Location: Krasnoyarskiy Pitomnik
(51.1333°N, 71.6167°E)
Time: 14:51:54
(UTC+00:00)

CZ-2C R/B - Pass Details

Date: 22 October 2021
Orbit: 667 x 785 km, 98.2° (Epoch: 26 November)

Event Time Altitude Azimuth Distance (km) Brightness Sun altitude
Rises 22:20:59 0° 20° (NNE) 3,173 6.3 -32.9°
Reaches altitude 10° 22:23:29 10° 29° (NNE) 2,226 5.5 -32.5°
Maximum altitude 22:27:58 36° 96° (E) 1,114 3.7 -31.9°
Enters shadow 22:28:06 36° 100° (E) 1,115 3.6 -31.9°
